N5CNB Weather Reports


Display with metric or nautical units.
time (UTC)temp
F
wind
direction
speed
MPH
gust
MPH
rain 1hr
in
rain 24hr
in
rain mn
in
humidity
%
barometer
mb
20260902071531 75 223 0.0 0.0 0.00 0.00 0.00 87 1014.9
20260902070033 75 223 0.0 0.0 0.00 0.00 0.00 87 1015.1
20260902064533 75 223 0.0 0.0 0.00 0.00 0.00 86 1015.0
20260902063043 76 223 0.0 0.0 0.00 0.00 0.00 86 1015.1
20260902061551 76 223 0.0 0.0 0.00 0.00 0.00 86 1015.1
20260902060009 76 223 0.0 0.0 0.00 0.00 0.00 85 1015.0
20260902054516 76 222 0.0 0.0 0.00 0.00 0.00 85 1015.0
20260902053027 77 222 0.0 0.0 0.00 0.00 0.00 84 1014.9
20260902051529 77 222 0.0 0.0 0.00 0.00 0.00 83 1014.7
20260902050012 78 222 0.0 0.0 0.00 0.00 0.00 82 1014.9
20260902044511 78 222 0.0 0.0 0.00 0.00 0.00 82 1015.1
20260902043019 78 222 0.0 0.0 0.00 0.00 0.00 81 1015.0
20260902041530 79 222 0.0 0.0 0.00 0.00 0.00 80 1015.0
20260902040033 80 222 0.0 0.0 0.00 0.00 0.00 79 1014.9
20260902034510 81 222 0.0 1.0 0.00 0.00 0.00 77 1014.8
20260902033017 82 77 0.0 3.0 0.00 0.00 0.00 75 1014.7
20260902031538 82 106 0.0 5.0 0.00 0.00 0.00 74 1014.7
20260902030031 82 68 0.0 4.0 0.00 0.00 0.00 73 1014.6
20260902024527 83 108 0.0 7.0 0.00 0.00 0.00 72 1014.4
20260902023020 83 76 2.0 7.0 0.00 0.00 0.00 71 1014.5
20260902021518 84 82 3.0 7.0 0.00 0.00 0.00 70 1014.3
20260902020023 84 65 2.0 9.0 0.00 0.00 0.00 70 1014.0
20260902014536 85 105 3.0 11.0 0.00 0.00 0.00 68 1013.9
20260902013033 86 87 5.0 9.0 0.00 0.00 0.00 64 1013.7
20260902011516 87 101 4.0 6.0 0.00 0.00 0.00 62 1013.5
20260902010020 87 117 2.0 5.0 0.00 0.00 0.00 62 1013.2
20260902004523 88 113 1.0 3.0 0.00 0.00 0.00 63 1013.0
20260902003027 89 135 0.0 3.0 0.00 0.00 0.00 61 1013.0
20260902001533 89 120 0.0 7.0 0.00 0.00 0.00 60 1013.0
20260902000011 90 118 1.0 5.0 0.00 0.00 0.00 58 1013.0
20260901234518 90 89 2.0 8.0 0.00 0.00 0.00 57 1013.3
20260901233027 91 57 3.0 5.0 0.00 0.00 0.00 57 1013.3
20260901231505 91 86 3.0 9.0 0.00 0.00 0.00 55 1013.2
20260901230008 91 168 3.0 8.0 0.00 0.00 0.00 59 1013.3
20260901224515 91 79 2.0 9.0 0.00 0.00 0.00 59 1013.2
20260901223020 91 60 6.0 11.0 0.00 0.00 0.00 59 1013.4
20260901221526 91 62 5.0 7.0 0.00 0.00 0.00 60 1013.3
20260901220007 90 79 3.0 8.0 0.00 0.00 0.00 63 1013.5
20260901214511 90 53 3.0 7.0 0.00 0.00 0.00 63 1013.6
20260901213025 91 359 5.0 11.0 0.00 0.00 0.00 62 1013.6
20260901211526 92 69 9.0 13.0 0.00 0.00 0.00 57 1013.6
20260901210030 93 110 6.0 10.0 0.00 0.00 0.00 53 1013.7
20260901204512 93 75 4.0 9.0 0.00 0.00 0.00 56 1013.8
20260901203012 94 82 3.0 6.0 0.00 0.00 0.00 52 1014.0
20260901201517 93 77 6.0 11.0 0.00 0.00 0.00 53 1014.2
20260901200025 94 56 2.0 7.0 0.00 0.00 0.00 54 1014.3
20260901194531 94 101 2.0 11.0 0.00 0.00 0.00 52 1014.4
20260901193008 96 65 1.0 9.0 0.00 0.00 0.00 52 1014.6
20260901191517 96 77 4.0 10.0 0.00 0.00 0.00 50 1014.8
20260901190025 93 49 3.0 12.0 0.00 0.00 0.00 58 1015.0
20260901184526 91 340 1.0 11.0 0.00 0.00 0.00 62 1015.3
20260901183055 92 58 2.0 6.0 0.00 0.00 0.00 58 1015.4
20260901181508 92 53 5.0 9.0 0.00 0.00 0.00 59 1015.7
20260901180020 92 24 2.0 5.0 0.00 0.00 0.00 57 1016.0
20260901174521 92 96 1.0 7.0 0.00 0.00 0.00 58 1016.1
20260901173029 91 352 2.0 5.0 0.00 0.00 0.00 59 1016.4
20260901171545 91 34 3.0 5.0 0.00 0.00 0.00 60 1016.6
20260901170015 91 67 7.0 9.0 0.00 0.00 0.00 61 1016.6
20260901164517 92 95 0.0 6.0 0.00 0.00 0.00 63 1016.6
20260901163028 89 93 1.0 9.0 0.00 0.00 0.00 64 1016.7
20260901161529 91 43 3.0 9.0 0.00 0.00 0.00 62 1016.8
20260901160032 90 320 2.0 7.0 0.00 0.00 0.00 66 1016.9
20260901154512 89 297 0.0 5.0 0.00 0.00 0.00 68 1016.8
20260901153017 89 336 3.0 6.0 0.00 0.00 0.00 71 1016.8
20260901151523 87 6 4.0 9.0 0.00 0.00 0.00 73 1016.9
20260901150027 85 297 2.0 6.0 0.00 0.00 0.00 76 1017.0
20260901144533 85 359 4.0 7.0 0.00 0.00 0.00 76 1017.0
20260901143016 85 1 2.0 4.0 0.00 0.00 0.00 79 1017.0
20260901141531 84 343 0.0 6.0 0.00 0.00 0.00 80 1017.1
20260901140024 83 352 1.0 4.0 0.00 0.00 0.00 81 1017.1
20260901134509 82 359 1.0 3.0 0.00 0.00 0.00 83 1017.1
20260901133011 81 13 0.0 5.0 0.00 0.00 0.00 85 1017.0
20260901131520 78 68 0.0 2.0 0.00 0.00 0.00 88 1016.7
20260901130022 76 95 0.0 0.0 0.00 0.00 0.00 90 1016.5
20260901124529 75 138 0.0 0.0 0.00 0.00 0.00 92 1016.3
20260901123005 74 138 0.0 0.0 0.00 0.00 0.00 92 1016.3
20260901121516 73 138 0.0 0.0 0.00 0.00 0.00 91 1016.2
20260901120021 73 138 0.0 0.0 0.00 0.00 0.00 91 1016.2
20260901114525 73 138 0.0 0.0 0.00 0.00 0.00 91 1016.1
20260901113032 73 138 0.0 0.0 0.00 0.00 0.00 91 1016.0
20260901111508 73 138 0.0 0.0 0.00 0.00 0.00 91 1015.8
20260901110017 73 138 0.0 0.0 0.00 0.00 0.00 91 1015.8
20260901104522 74 138 0.0 0.0 0.00 0.00 0.00 91 1015.7
20260901103026 73 138 0.0 0.0 0.00 0.00 0.00 90 1015.7
20260901101533 74 138 0.0 0.0 0.00 0.00 0.00 90 1015.7
20260901100009 74 138 0.0 0.0 0.00 0.00 0.00 90 1015.5
20260901094516 74 138 0.0 0.0 0.00 0.00 0.00 90 1015.5
20260901093024 74 138 0.0 0.0 0.00 0.00 0.00 90 1015.6
20260901091533 75 138 0.0 0.0 0.00 0.00 0.00 89 1015.6
20260901090029 75 138 0.0 0.0 0.00 0.00 0.00 89 1015.6
20260901084511 75 138 0.0 0.0 0.00 0.00 0.00 89 1015.7
20260901083019 75 138 0.0 0.0 0.00 0.00 0.00 89 1015.9
20260901081525 75 138 0.0 0.0 0.00 0.00 0.00 88 1015.9
20260901080027 76 138 0.0 0.0 0.00 0.00 0.00 88 1015.9
20260901074532 76 135 0.0 0.0 0.00 0.00 0.00 88 1015.9
20260901073016 77 135 0.0 0.0 0.00 0.00 0.00 87 1016.1